[[{"header":{"parameterUnit":"m.s-1","parameterCategory":2,"la1":30.2991,"la2":30.254,"lo1":-89.0895,"lo2":-89.0444,"dy":0.0017,"dx":0.0017,"nx":28,"ny":28,"refTime":"2025-09-02T03:00:00:Z","depth":"0","parameterNumber":2,"parameterNumberName":"U-component_of_CURRENTS"},"data":[0,0,0,0,0,0,0,0,0,0,0,0,0,0,0,0,0,0,0,0,0,0,0,0,0,0,0,0,0,0,0,0,0,0,0,0,0,0,0,0,0,0,0,0,0,0,0,0,0,0,0,0,0,0,0,0,0,0,0.2108,0.2108,0,0.2151,0.2152,0.2152,0.2165,0.2165,0.2165,0.2165,0.2175,0.2175,0.2175,0,0,0,0,0,0,0,0,0,0,0,0,0,0.2045,0.2045,0.2108,0.2108,0.2109,0.2151,0.2152,0.2152,0.2165,0.2165,0.2165,0.2165,0.2174,0.2175,0.2175,0,0,0,0,0,0,0,0,0,0,0,0,0,0.2077,0.2046,0.2107,0.2122,0.2124,0.2151,0.2152,0.2152,0.2165,0.2165,0.2165,0.2165,0.2174,0.2175,0.2175,0.2179,0,0,0.2177,0.2177,0,0,0,0,0,0,0,0,0.2075,0.2079,0.2119,0.2121,0.2123,0.2154,0.2133,0.216,0.2165,0.2147,0.2165,0.2165,0.2166,0.2167,0.2173,0.218,0.218,0.2177,0.2177,0.2177,0.2177,0,0,0,0,0,0,0,0.2073,0.2077,0.2123,0.212,0.2122,0.213,0.2134,0.2138,0.2154,0.2149,0.215,0.2158,0.2166,0.2173,0.2173,0.218,0.2177,0.2177,0.2177,0.2177,0.2186,0.2186,0,0,0,0,0,0,0.2071,0.2075,0.2122,0.2124,0.21,0.2131,0.2135,0.2143,0.2155,0.2158,0.2158,0.2159,0.2172,0.2173,0.2174,0.2183,0.2177,0.2178,0.2178,0.2186,0.2186,0.2186,0,0,0,0,0,0,0.2069,0.2074,0.212,0.2102,0.2109,0.2132,0.214,0.2144,0.2152,0.2163,0.2165,0.2164,0.2172,0.2173,0.218,0.2184,0.2178,0.2178,0.2186,0.2186,0.2186,0.22,0,0,0,0,0,0,0.2067,0.2074,0.2076,0.2102,0.211,0.2138,0.2141,0.2145,0.2158,0.2159,0.2168,0.2169,0.2172,0.2179,0.218,0.2184,0.2178,0.2186,0.2186,0.2186,0.22,0.22,0.2201,0,0,0,0,0,0.2065,0.2068,0.2076,0.2082,0.2113,0.2139,0.2143,0.2158,0.2158,0.2164,0.2169,0.2169,0.2179,0.218,0.2181,0.2185,0.2186,0.2186,0.2186,0.2199,0.22,0.2201,0,0,0,0,0,0,0.2039,0.2071,0.208,0.2092,0.2115,0.2141,0.2148,0.2159,0.2168,0.2168,0.2172,0.2173,0.218,0.2179,0.2179,0.2186,0.2181,0.2181,0.2191,0.2192,0.2192,0.2192,0.2179,0,0,0,0,0,0.2037,0.2047,0.208,0.2088,0.2101,0.2124,0.2136,0.2149,0.2163,0.2168,0.2173,0.2176,0.2181,0.2183,0.2187,0.2193,0.22,0.2194,0.2195,0.2195,0.2195,0.2201,0.2202,0.2186,0.2186,0.2186,0,0,0.2027,0.2047,0.2052,0.2084,0.2101,0.2123,0.213,0.2151,0.2165,0.2166,0.2178,0.2181,0.2182,0.219,0.2192,0.219,0.2208,0.2195,0.2196,0.2195,0.2201,0.2203,0.2204,0.2186,0.2186,0.2186,0,0,0.2021,0.2035,0.2047,0.2067,0.2101,0.2119,0.2126,0.2155,0.2163,0.2179,0.2181,0.2185,0.2193,0.2196,0.2197,0.2203,0.2212,0.2203,0.2208,0.2214,0.2215,0.2217,0.2248,0.2252,0.2203,0.2203,0.2203,0,0.201,0.2031,0.2053,0.2073,0.209,0.2118,0.2137,0.2152,0.2177,0.2185,0.2183,0.2196,0.2196,0.2205,0.2206,0.2205,0.2218,0.2207,0.2216,0.2217,0.2218,0.225,0.2254,0.2204,0.2204,0.2204,0.2203,0,0.202,0.2036,0.2044,0.2079,0.21,0.2119,0.215,0.2167,0.2179,0.2194,0.2206,0.2207,0.2216,0.2213,0.2212,0.2219,0.2231,0.2217,0.2215,0.2221,0.2254,0.2258,0.2205,0.2204,0.2204,0.2204,0,0,0.1996,0.2042,0.2044,0.206,0.2105,0.2122,0.2149,0.2182,0.2195,0.2212,0.2228,0.2229,0.2232,0.2233,0.2231,0.2231,0.2254,0.2228,0.2228,0.2263,0.229,0.2426,0.2444,0.2242,0.2243,0.2243,0.2317,0,0.1998,0.2029,0.2055,0.2082,0.2101,0.2136,0.2155,0.2186,0.2208,0.2229,0.2237,0.2249,0.224,0.2245,0.2245,0.2254,0.2263,0.2237,0.2275,0.2276,0.24,0.2452,0.2447,0.2524,0.2321,0.2322,0.2322,0,0.1999,0.2022,0.2046,0.2085,0.2096,0.2112,0.2152,0.2175,0.2214,0.2231,0.2253,0.2268,0.2287,0.2266,0.2295,0.2282,0.2286,0.2287,0.229,0.2414,0.2421,0.248,0.2539,0.2453,0.2329,0.2328,0.2328,0,0.1969,0.2013,0.2029,0.2043,0.2091,0.2103,0.2128,0.217,0.2198,0.2235,0.2271,0.2286,0.2317,0.2314,0.2361,0.2318,0.2404,0.2342,0.247,0.2479,0.2482,0.2493,0.2465,0.235,0.235,0.235,0.235,0,0.1959,0.197,0.2012,0.2019,0.2036,0.2077,0.21,0.213,0.2184,0.2231,0.2268,0.2325,0.2329,0.2397,0.2389,0.2494,0.2438,0.2496,0.2515,0.2492,0.2503,0.2434,0.2383,0.2353,0.2352,0.2351,0.2351,0,0.1919,0.1948,0.1965,0.2008,0.202,0.2028,0.2088,0.2109,0.2173,0.2243,0.2266,0.2367,0.2483,0.253,0.2561,0.2571,0.2572,0.2659,0.2663,0.2683,0.2715,0.2667,0.2591,0.2504,0.279,0.2794,0.2797,0,0.1901,0.1904,0.1942,0.1947,0.1963,0.1989,0.2011,0.2082,0.2124,0.2282,0.2321,0.2479,0.2617,0.2775,0.2828,0.2905,0.2733,0.2906,0.2818,0.2753,0.2708,0.2548,0.2465,0.2816,0.2819,0.2822,0.2824,0,0.1857,0.1865,0.1876,0.1897,0.1913,0.1944,0.1991,0.2033,0.2143,0.2248,0.242,0.2559,0.2798,0.2918,0.3063,0.3083,0.2801,0.2967,0.2863,0.2725,0.2577,0.2492,0.2744,0.2847,0.2845,0.2843,0.2842,0.2841,0.1815,0.181,0.1825,0.1843,0.1862,0.1897,0.1917,0.201,0.2115,0.2277,0.2437,0.2638,0.2876,0.312,0.3131,0.3145,0.3022,0.3031,0.2978,0.282,0.2735,0.3089,0.3246,0.3246,0.3246,0.3246,0.3246,0,0.1777,0.1778,0.1777,0.1801,0.1809,0.1841,0.1903,0.1931,0.2059,0.2256,0.2437,0.2717,0.2917,0.3056,0.3205,0.313,0.2923,0.3027,0.2731,0.2644,0.294,0.2941,0.3084,0.3084,0.3084,0.3084,0.3084,0.3084,0.1757,0.1745,0.1751,0.1751,0.1766,0.1769,0.1798,0.1864,0.1982,0.219,0.2363,0.2532,0.2837,0.311,0.3123,0.3044,0.2725,0.2698,0.2574,0.2741,0.2732,0.2724,0.271,0.2802,0.2802,0.2175,0.2171,0.2167]},{"header":{"parameterUnit":"m.s-1","parameterCategory":2,"la1":30.2991,"la2":30.254,"lo1":-89.0895,"lo2":-89.0444,"dy":0.0017,"dx":0.0017,"nx":28,"ny":28,"refTime":"2025-09-02T03:00:00:Z","depth":"0","parameterNumber":3,"parameterNumberName":"V-component_of_CURRENTS"},"data":[0,0,0,0,0,0,0,0,0,0,0,0,0,0,0,0,0,0,0,0,0,0,0,0,0,0,0,0,0,0,0,0,0,0,0,0,0,0,0,0,0,0,0,0,0,0,0,0,0,0,0,0,0,0,0,0,0,0,-0.0344,-0.0345,0,-0.0415,-0.0416,-0.0416,-0.0446,-0.0446,-0.0446,-0.0446,-0.0526,-0.0528,-0.053,0,0,0,0,0,0,0,0,0,0,0,0,0,-0.0285,-0.0286,-0.0344,-0.0345,-0.0346,-0.0415,-0.0416,-0.0417,-0.0446,-0.0446,-0.0446,-0.0446,-0.0525,-0.0528,-0.053,0,0,0,0,0,0,0,0,0,0,0,0,0,-0.0329,-0.0286,-0.0344,-0.0369,-0.0372,-0.0414,-0.0416,-0.0417,-0.0446,-0.0446,-0.0446,-0.0446,-0.0524,-0.0527,-0.0531,-0.0555,0,0,-0.0541,-0.0542,0,0,0,0,0,0,0,0,-0.0326,-0.0331,-0.0364,-0.0367,-0.0371,-0.0422,-0.0424,-0.0464,-0.0446,-0.0418,-0.0446,-0.0446,-0.0492,-0.0498,-0.0511,-0.0559,-0.0562,-0.0541,-0.0543,-0.0545,-0.0546,0,0,0,0,0,0,0,-0.0323,-0.0328,-0.0372,-0.0365,-0.0369,-0.0394,-0.04,-0.0432,-0.0455,-0.042,-0.0423,-0.0431,-0.0494,-0.0508,-0.0514,-0.0564,-0.0541,-0.0544,-0.0546,-0.0548,-0.0664,-0.0665,0,0,0,0,0,0,-0.0312,-0.0325,-0.037,-0.0374,-0.0348,-0.0395,-0.0401,-0.0405,-0.0455,-0.0462,-0.0431,-0.0432,-0.0502,-0.051,-0.0516,-0.0564,-0.0545,-0.0548,-0.055,-0.0663,-0.0664,-0.0665,0,0,0,0,0,0,-0.0311,-0.0315,-0.0367,-0.0352,-0.036,-0.0396,-0.0401,-0.0407,-0.042,-0.0463,-0.047,-0.0437,-0.0503,-0.0512,-0.0554,-0.0567,-0.0549,-0.0552,-0.0662,-0.0663,-0.0665,-0.065,0,0,0,0,0,0,-0.0308,-0.0314,-0.0314,-0.0351,-0.036,-0.0391,-0.0401,-0.0408,-0.0425,-0.0427,-0.047,-0.0478,-0.0503,-0.0549,-0.0558,-0.0571,-0.0555,-0.066,-0.0663,-0.0664,-0.0649,-0.065,-0.0652,0,0,0,0,0,-0.0306,-0.0306,-0.0314,-0.0319,-0.0359,-0.0391,-0.0399,-0.0424,-0.0425,-0.0434,-0.0468,-0.0476,-0.0568,-0.0553,-0.0562,-0.0577,-0.0659,-0.0662,-0.0664,-0.0648,-0.065,-0.0652,0,0,0,0,0,0,-0.0283,-0.0311,-0.0319,-0.0328,-0.0357,-0.0396,-0.0406,-0.0421,-0.0454,-0.0455,-0.0491,-0.0501,-0.0544,-0.0565,-0.0547,-0.0618,-0.0615,-0.0619,-0.0599,-0.0602,-0.0603,-0.0583,-0.0558,0,0,0,0,0,-0.0277,-0.0282,-0.0317,-0.0324,-0.0336,-0.0369,-0.0385,-0.0402,-0.0436,-0.045,-0.0483,-0.0522,-0.0563,-0.0584,-0.0622,-0.0659,-0.0668,-0.0676,-0.0677,-0.0678,-0.067,-0.0706,-0.0709,-0.0673,-0.0673,-0.0673,0,0,-0.027,-0.0286,-0.029,-0.0319,-0.0342,-0.0363,-0.0378,-0.04,-0.042,-0.0454,-0.0491,-0.0528,-0.0575,-0.062,-0.064,-0.0637,-0.0693,-0.0681,-0.0682,-0.0673,-0.0708,-0.0712,-0.0714,-0.0675,-0.0675,-0.0675,0,0,-0.0262,-0.0273,-0.0277,-0.0299,-0.0331,-0.0355,-0.0359,-0.04,-0.0418,-0.046,-0.0492,-0.0534,-0.0594,-0.0632,-0.0658,-0.0691,-0.0701,-0.0706,-0.0698,-0.0732,-0.0735,-0.0737,-0.0745,-0.0748,-0.0706,-0.0706,-0.0706,0,-0.0254,-0.0262,-0.0285,-0.0298,-0.0311,-0.0348,-0.0359,-0.039,-0.0441,-0.0456,-0.0468,-0.0559,-0.0599,-0.0653,-0.067,-0.0693,-0.0705,-0.0683,-0.0732,-0.0735,-0.0738,-0.0745,-0.0749,-0.0706,-0.0706,-0.0706,-0.0706,0,-0.0252,-0.026,-0.0265,-0.029,-0.031,-0.0325,-0.0367,-0.0391,-0.0416,-0.0448,-0.0501,-0.0561,-0.0608,-0.0638,-0.0667,-0.0712,-0.0711,-0.0728,-0.072,-0.074,-0.0747,-0.0751,-0.0705,-0.0706,-0.0706,-0.0706,0,0,-0.0228,-0.0256,-0.0257,-0.0258,-0.0303,-0.0314,-0.0349,-0.0386,-0.0392,-0.0457,-0.0474,-0.0564,-0.0587,-0.0618,-0.0663,-0.0702,-0.0737,-0.0722,-0.0725,-0.0717,-0.0796,-0.0735,-0.0734,-0.0765,-0.0766,-0.0766,-0.0789,0,-0.0219,-0.0225,-0.0249,-0.0256,-0.026,-0.0299,-0.0319,-0.0357,-0.0393,-0.0422,-0.0492,-0.0526,-0.0583,-0.0598,-0.0653,-0.0712,-0.0749,-0.0728,-0.0789,-0.079,-0.0724,-0.0737,-0.0658,-0.0667,-0.0793,-0.0794,-0.0794,0,-0.0207,-0.021,-0.021,-0.0219,-0.0222,-0.0234,-0.0253,-0.0278,-0.0334,-0.0359,-0.0416,-0.0464,-0.0535,-0.0574,-0.0686,-0.0669,-0.0731,-0.078,-0.0782,-0.0731,-0.0738,-0.0672,-0.067,-0.0835,-0.0801,-0.08,-0.08,0,-0.0163,-0.0179,-0.017,-0.0177,-0.02,-0.0199,-0.0213,-0.0255,-0.0251,-0.0313,-0.0304,-0.0414,-0.043,-0.0546,-0.0644,-0.0669,-0.0749,-0.0795,-0.0799,-0.0794,-0.074,-0.0729,-0.0891,-0.0872,-0.0872,-0.0872,-0.0872,0,-0.0138,-0.0129,-0.0142,-0.0136,-0.0109,-0.0146,-0.0123,-0.0153,-0.0173,-0.0131,-0.0257,-0.0232,-0.0422,-0.0486,-0.0614,-0.0695,-0.0724,-0.0789,-0.0798,-0.0731,-0.072,-0.087,-0.0975,-0.0873,-0.0873,-0.0873,-0.0873,0,-0.0092,-0.0107,-0.0086,-0.0091,-0.0085,-0.0063,-0.0046,-0.002,-0.0054,0.0001,-0.0003,-0.0091,-0.0153,-0.0327,-0.0486,-0.0611,-0.0796,-0.0749,-0.0641,-0.0637,-0.0802,-0.0906,-0.105,-0.113,-0.0769,-0.0768,-0.0767,0,-0.007,-0.0053,-0.0033,-0.0,0.0003,0.0031,0.0068,0.0043,0.0094,0.0122,0.0178,0.0119,0.0149,-0.0076,-0.0311,-0.0508,-0.0707,-0.0603,-0.0649,-0.0792,-0.0918,-0.1002,-0.1067,-0.0574,-0.0572,-0.057,-0.0568,0,-0.0013,-0.0002,0.0022,0.0094,0.0141,0.0193,0.0252,0.032,0.0342,0.0431,0.056,0.0585,0.0378,0.0235,-0.0082,-0.026,-0.0701,-0.0563,-0.0756,-0.0809,-0.0868,-0.0952,-0.0571,-0.0549,-0.0551,-0.0552,-0.0553,-0.0554,0.0044,0.0085,0.0136,0.0213,0.0274,0.0387,0.0499,0.0598,0.0755,0.0963,0.0917,0.1054,0.0714,0.0317,0.0032,-0.0474,-0.0537,-0.0626,-0.0747,-0.0824,-0.0889,-0.0444,-0.0406,-0.0407,-0.0408,-0.0409,-0.0409,0,0.0142,0.0192,0.026,0.0376,0.05,0.0493,0.0662,0.0824,0.1106,0.1265,0.1441,0.1379,0.0979,0.0461,-0.0218,-0.0582,-0.0776,-0.0826,-0.0963,-0.1029,-0.0659,-0.0638,-0.0594,-0.0594,-0.0594,-0.0593,-0.0593,-0.0593,0.0198,0.0301,0.0346,0.0577,0.0673,0.089,0.1027,0.1257,0.1429,0.1724,0.1834,0.1851,0.1405,0.0179,-0.0673,-0.0885,-0.1208,-0.1225,-0.1435,-0.1215,-0.1208,-0.1201,-0.1208,-0.1284,-0.1285,-0.1733,-0.1738,-0.1741]}],[{"header":{"parameterUnit":"m.s-1","parameterCategory":2,"la1":30.2991,"la2":30.254,"lo1":-89.0895,"lo2":-89.0444,"dy":0.0017,"dx":0.0017,"nx":28,"ny":28,"refTime":"2025-09-02T03:00:00:Z","depth":"2","parameterNumber":2,"parameterNumberName":"U-component_of_CURRENTS"},"data":[0,0,0,0,0,0,0,0,0,0,0,0,0,0,0,0,0,0,0,0,0,0,0,0,0,0,0,0,0,0,0,0,0,0,0,0,0,0,0,0,0,0,0,0,0,0,0,0,0,0,0,0,0,0,0,0,0,0,0.2008,0.2008,0,0.2072,0.2073,0.2074,0.2179,0.2181,0.2182,0.2184,0.2219,0.2218,0.2218,0,0,0,0,0,0,0,0,0,0,0,0,0,0.1988,0.1988,0.2008,0.2008,0.2009,0.2072,0.2073,0.2074,0.2178,0.2181,0.2183,0.2185,0.2219,0.2218,0.2218,0,0,0,0,0,0,0,0,0,0,0,0,0,0.202,0.1988,0.2008,0.2067,0.2073,0.2071,0.2073,0.2074,0.2178,0.2181,0.2183,0.2186,0.2219,0.2218,0.2217,0.2159,0,0,0.2214,0.2214,0,0,0,0,0,0,0,0,0.2018,0.2021,0.2058,0.2063,0.2069,0.2118,0.2079,0.21,0.2177,0.214,0.2184,0.2187,0.2179,0.2181,0.2192,0.2161,0.2163,0.2214,0.2214,0.2213,0.2213,0,0,0,0,0,0,0,0.2016,0.2019,0.2035,0.2058,0.2065,0.2094,0.2102,0.2084,0.2146,0.2144,0.2151,0.2154,0.2183,0.2192,0.2193,0.2163,0.2214,0.2213,0.2213,0.2212,0.225,0.2251,0,0,0,0,0,0,0.2,0.2017,0.2033,0.2037,0.2047,0.2092,0.2101,0.2102,0.2147,0.2156,0.2151,0.2158,0.2193,0.2194,0.2194,0.2254,0.2213,0.2212,0.2212,0.2248,0.225,0.2252,0,0,0,0,0,0,0.1999,0.2,0.2031,0.2027,0.2033,0.2089,0.209,0.2101,0.2138,0.2152,0.2162,0.2178,0.2195,0.2196,0.2205,0.2251,0.2212,0.2211,0.2246,0.2249,0.2251,0.2291,0,0,0,0,0,0,0.1998,0.2,0.2024,0.2025,0.2032,0.206,0.2087,0.2101,0.2132,0.2143,0.2177,0.2182,0.2197,0.2207,0.2204,0.2249,0.221,0.2244,0.2247,0.225,0.2288,0.2294,0.23,0,0,0,0,0,0.1997,0.2011,0.2024,0.2028,0.2053,0.206,0.2068,0.2118,0.2131,0.2158,0.2173,0.2183,0.2226,0.2205,0.2202,0.2249,0.2243,0.2246,0.225,0.2285,0.2293,0.23,0,0,0,0,0,0,0.2016,0.2022,0.2038,0.2055,0.207,0.2079,0.2103,0.2118,0.215,0.2167,0.2173,0.2179,0.2218,0.2214,0.2191,0.2272,0.2247,0.225,0.2275,0.2282,0.2289,0.2277,0.2209,0,0,0,0,0,0.2025,0.2038,0.2045,0.2059,0.2064,0.208,0.2096,0.2127,0.2139,0.2158,0.2178,0.2203,0.2223,0.2236,0.2256,0.2266,0.2261,0.2305,0.2312,0.2317,0.2308,0.2323,0.2329,0.2263,0.2263,0.2263,0,0,0.2031,0.2038,0.2045,0.2065,0.2074,0.2103,0.2099,0.2125,0.2165,0.2149,0.221,0.2218,0.223,0.2272,0.229,0.2277,0.2339,0.2321,0.2326,0.2313,0.2327,0.2333,0.2339,0.2266,0.2265,0.2265,0,0,0.2038,0.2053,0.207,0.2089,0.2116,0.213,0.2137,0.2161,0.2195,0.2225,0.2243,0.2266,0.2292,0.232,0.2329,0.237,0.2371,0.2396,0.2415,0.2431,0.2436,0.244,0.246,0.2466,0.24,0.24,0.24,0,0.2052,0.2075,0.2077,0.2106,0.2125,0.2141,0.217,0.2203,0.2238,0.2251,0.2261,0.2306,0.2318,0.2355,0.2384,0.2385,0.2391,0.2383,0.2437,0.2441,0.2444,0.2464,0.247,0.2402,0.2402,0.2402,0.2402,0,0.2079,0.211,0.2114,0.216,0.2184,0.2207,0.2241,0.2279,0.2304,0.2329,0.2371,0.2379,0.2401,0.2427,0.2412,0.2456,0.2452,0.2441,0.2412,0.2453,0.2472,0.2477,0.2406,0.2405,0.2404,0.2404,0,0,0.2058,0.2123,0.2127,0.2153,0.2216,0.2222,0.2289,0.233,0.2356,0.2407,0.2431,0.2473,0.2466,0.2475,0.2476,0.2488,0.2525,0.2474,0.2474,0.2484,0.2565,0.259,0.2598,0.2521,0.2522,0.2523,0.2574,0,0.2077,0.2132,0.2166,0.2218,0.2243,0.2283,0.2329,0.2377,0.2412,0.2447,0.2467,0.2492,0.2492,0.2491,0.2511,0.2516,0.2537,0.2512,0.2531,0.2532,0.2541,0.2604,0.2391,0.2421,0.2579,0.258,0.258,0,0.2091,0.2126,0.2176,0.2231,0.2241,0.2277,0.2325,0.2375,0.2434,0.2458,0.2493,0.2508,0.2541,0.2524,0.2569,0.2553,0.256,0.2565,0.2567,0.2574,0.2566,0.2403,0.2424,0.2588,0.2588,0.2587,0.2586,0,0.2053,0.2125,0.2158,0.2182,0.2254,0.227,0.2306,0.2368,0.2398,0.2456,0.248,0.2526,0.2544,0.2566,0.2613,0.2578,0.2665,0.2617,0.2653,0.2655,0.2467,0.2452,0.2644,0.2644,0.2644,0.2644,0.2644,0,0.2053,0.2072,0.2135,0.2152,0.2175,0.2233,0.2257,0.2306,0.2367,0.2419,0.2469,0.2528,0.2553,0.2618,0.2633,0.269,0.2693,0.2667,0.2674,0.2481,0.2467,0.2598,0.2592,0.2646,0.2645,0.2645,0.2645,0,0.1996,0.2051,0.2076,0.2138,0.2155,0.2161,0.2219,0.2239,0.2313,0.2384,0.2404,0.2521,0.2634,0.2689,0.2746,0.2722,0.2764,0.2783,0.2571,0.2552,0.2724,0.272,0.2785,0.2786,0.2788,0.2789,0.2789,0,0.1971,0.1983,0.2035,0.2044,0.2065,0.209,0.211,0.2193,0.2236,0.2406,0.2444,0.2583,0.2667,0.2783,0.2797,0.2834,0.2876,0.2643,0.2534,0.2741,0.2741,0.2735,0.2729,0.2299,0.2295,0.2293,0.2291,0,0.1909,0.1924,0.1943,0.1969,0.1984,0.2012,0.2063,0.2095,0.2228,0.229,0.2454,0.2529,0.268,0.264,0.27,0.2692,0.2614,0.2593,0.2856,0.2321,0.2294,0.2291,0.2298,0.2267,0.2269,0.2271,0.2272,0.2273,0.1843,0.1838,0.1871,0.189,0.1911,0.1953,0.1967,0.2027,0.2093,0.219,0.2359,0.2398,0.2458,0.245,0.2425,0.2417,0.2572,0.2421,0.2423,0.2429,0.2389,0.2368,0.2347,0.235,0.2352,0.2354,0.2356,0,0.1783,0.1797,0.1799,0.1836,0.1845,0.1888,0.195,0.1927,0.1975,0.2068,0.2143,0.2024,0.2011,0.2111,0.2047,0.205,0.1957,0.1985,0.1829,0.1857,0.1881,0.1805,0.1612,0.1609,0.1607,0.1604,0,0,0.1756,0.175,0.1765,0.1777,0.1803,0.1802,0.1834,0.1779,0.1802,0.1753,0.1763,0.1895,0.2025,0.1774,0.1768,0.168,0.174,0.162,0.2225,0.2069,0.2089,0.2156,0.2077,0,0,0,0,0]},{"header":{"parameterUnit":"m.s-1","parameterCategory":2,"la1":30.2991,"la2":30.254,"lo1":-89.0895,"lo2":-89.0444,"dy":0.0017,"dx":0.0017,"nx":28,"ny":28,"refTime":"2025-09-02T03:00:00:Z","depth":"2","parameterNumber":3,"parameterNumberName":"V-component_of_CURRENTS"},"data":[0,0,0,0,0,0,0,0,0,0,0,0,0,0,0,0,0,0,0,0,0,0,0,0,0,0,0,0,0,0,0,0,0,0,0,0,0,0,0,0,0,0,0,0,0,0,0,0,0,0,0,0,0,0,0,0,0,0,0.0013,0.0013,0,-0.0042,-0.0043,-0.0044,-0.0188,-0.0191,-0.0194,-0.0196,-0.0342,-0.0343,-0.0344,0,0,0,0,0,0,0,0,0,0,0,0,0,-0.0004,-0.0003,0.0014,0.0013,0.0013,-0.0041,-0.0043,-0.0044,-0.0188,-0.0191,-0.0194,-0.0198,-0.0341,-0.0343,-0.0344,0,0,0,0,0,0,0,0,0,0,0,0,0,-0.0025,-0.0003,0.0014,-0.0063,-0.007,-0.0041,-0.0043,-0.0044,-0.0187,-0.0191,-0.0195,-0.0199,-0.0341,-0.0343,-0.0345,-0.0274,0,0,-0.0351,-0.0351,0,0,0,0,0,0,0,0,-0.0024,-0.0025,-0.0051,-0.0057,-0.0065,-0.0109,-0.0102,-0.0124,-0.0186,-0.0147,-0.0196,-0.0201,-0.0267,-0.0275,-0.028,-0.0281,-0.0287,-0.0351,-0.0352,-0.0353,-0.0353,0,0,0,0,0,0,0,-0.0022,-0.0023,-0.0012,-0.0051,-0.006,-0.0093,-0.0101,-0.0107,-0.0187,-0.015,-0.016,-0.0159,-0.0272,-0.0278,-0.0285,-0.029,-0.0351,-0.0352,-0.0354,-0.0354,-0.0451,-0.0452,0,0,0,0,0,0,-0.0003,-0.0021,-0.001,-0.0014,-0.005,-0.0089,-0.0099,-0.0094,-0.0186,-0.0202,-0.0155,-0.0165,-0.0273,-0.0282,-0.0291,-0.0369,-0.0353,-0.0355,-0.0356,-0.045,-0.0451,-0.0453,0,0,0,0,0,0,-0.0003,-0.0001,-0.0008,-0.0016,-0.0019,-0.0084,-0.0078,-0.0093,-0.0132,-0.0188,-0.0208,-0.0184,-0.0276,-0.0288,-0.0322,-0.0371,-0.0356,-0.0357,-0.0448,-0.045,-0.0452,-0.0426,0,0,0,0,0,0,-0.0003,-0.0,-0.0017,-0.0014,-0.0018,-0.0014,-0.0074,-0.0091,-0.0121,-0.0136,-0.0217,-0.0233,-0.028,-0.0319,-0.0324,-0.0373,-0.0359,-0.0446,-0.0449,-0.0451,-0.0425,-0.0427,-0.0429,0,0,0,0,0,-0.0003,0.0011,-0.0017,-0.0018,-0.003,-0.0014,-0.0019,-0.0082,-0.0118,-0.0133,-0.0187,-0.0233,-0.0342,-0.0319,-0.0326,-0.0377,-0.0445,-0.0448,-0.0451,-0.0425,-0.0427,-0.0429,0,0,0,0,0,0,-0.0013,-0.0001,-0.0034,-0.0023,-0.0033,-0.0038,-0.0047,-0.0079,-0.0127,-0.0155,-0.0212,-0.023,-0.0293,-0.0321,-0.0295,-0.0417,-0.0415,-0.042,-0.0393,-0.0396,-0.0397,-0.0373,-0.036,0,0,0,0,0,-0.0015,-0.0004,-0.0006,-0.0003,0.0002,-0.0024,-0.0033,-0.0072,-0.0097,-0.0126,-0.0186,-0.0252,-0.0299,-0.0335,-0.0383,-0.0411,-0.0422,-0.0462,-0.0464,-0.0465,-0.0453,-0.0485,-0.0487,-0.0463,-0.0463,-0.0463,0,0,-0.0021,-0.001,-0.0012,-0.0005,-0.0012,-0.0013,-0.0042,-0.005,-0.0081,-0.0127,-0.0199,-0.0249,-0.0306,-0.0367,-0.0401,-0.0403,-0.0482,-0.0469,-0.0469,-0.0456,-0.0488,-0.049,-0.0492,-0.0465,-0.0465,-0.0464,0,0,-0.0001,-0.0007,0.0005,0.0004,-0.0004,-0.0015,-0.0017,-0.0043,-0.009,-0.0131,-0.0194,-0.0252,-0.0329,-0.0384,-0.0415,-0.044,-0.0484,-0.049,-0.0482,-0.0514,-0.0515,-0.0516,-0.0538,-0.0542,-0.0497,-0.0497,-0.0497,0,-0.0018,0.0003,0.0008,0.002,0.002,-0.0012,-0.0007,-0.0042,-0.0096,-0.0118,-0.0166,-0.028,-0.0335,-0.0388,-0.0425,-0.0444,-0.0466,-0.0465,-0.0512,-0.0514,-0.0516,-0.0538,-0.0542,-0.0496,-0.0496,-0.0496,-0.0497,0,0.0011,0.0012,0.0033,0.0031,0.0027,0.0036,0.0004,-0.0033,-0.0088,-0.0131,-0.0207,-0.0276,-0.0345,-0.0393,-0.0418,-0.0475,-0.0488,-0.0502,-0.0497,-0.0516,-0.0539,-0.0544,-0.0495,-0.0495,-0.0496,-0.0496,0,0,0.0026,0.0046,0.0048,0.0049,0.0035,0.0047,0.001,-0.0015,-0.0036,-0.0133,-0.0164,-0.0272,-0.0319,-0.0357,-0.0414,-0.0454,-0.0497,-0.049,-0.0492,-0.0493,-0.0567,-0.0494,-0.0492,-0.0524,-0.0524,-0.0525,-0.0579,0,0.0042,0.0077,0.0073,0.0081,0.0103,0.0071,0.0049,0.0007,-0.0045,-0.0092,-0.0175,-0.0237,-0.0304,-0.0345,-0.0396,-0.0467,-0.0508,-0.048,-0.0565,-0.0567,-0.0484,-0.0494,-0.0491,-0.053,-0.0583,-0.0584,-0.0584,0,0.007,0.0094,0.0116,0.0129,0.0135,0.0116,0.0102,0.0072,0.0008,-0.0036,-0.0109,-0.0174,-0.0257,-0.0308,-0.0433,-0.0417,-0.049,-0.0545,-0.0548,-0.0486,-0.0501,-0.0523,-0.0537,-0.0592,-0.0592,-0.0591,-0.059,0,0.0108,0.0127,0.0151,0.0153,0.0153,0.0141,0.0125,0.0078,0.0071,-0.0008,-0.002,-0.0132,-0.0179,-0.0292,-0.0413,-0.0434,-0.0528,-0.0567,-0.0567,-0.0563,-0.0576,-0.057,-0.0643,-0.0643,-0.0643,-0.0642,-0.0642,0,0.0149,0.0164,0.0164,0.0178,0.0195,0.0171,0.017,0.0139,0.0106,0.0128,0.0002,0.0011,-0.0179,-0.0253,-0.0382,-0.0472,-0.0507,-0.0554,-0.0567,-0.0567,-0.056,-0.0626,-0.0624,-0.0644,-0.0644,-0.0644,-0.0643,0,0.0184,0.0187,0.0217,0.0218,0.0214,0.0218,0.0211,0.0221,0.0174,0.0202,0.0184,0.0106,0.0027,-0.0142,-0.0302,-0.0402,-0.0515,-0.0539,-0.0514,-0.0522,-0.0543,-0.054,-0.0553,-0.0551,-0.0549,-0.0548,-0.0546,0,0.0203,0.0222,0.0246,0.0265,0.0258,0.026,0.0276,0.0247,0.0283,0.0294,0.0336,0.0261,0.0268,0.0055,-0.0169,-0.0368,-0.0423,-0.0473,-0.0502,-0.052,-0.0533,-0.0532,-0.053,-0.053,-0.0529,-0.0527,-0.0527,0,0.0234,0.0237,0.0269,0.0316,0.0334,0.0376,0.0402,0.0457,0.047,0.0524,0.0623,0.0628,0.0418,0.0228,-0.0063,-0.0201,-0.0444,-0.045,-0.0495,-0.0524,-0.0494,-0.0507,-0.0508,-0.0517,-0.0518,-0.0518,-0.0519,-0.0519,0.0243,0.0278,0.0323,0.0372,0.0416,0.0507,0.0572,0.0642,0.0755,0.0845,0.0847,0.0848,0.0575,0.0227,-0.0027,-0.0318,-0.0316,-0.0429,-0.0436,-0.0443,-0.0401,-0.0366,-0.0358,-0.0358,-0.0358,-0.0358,-0.0358,0,0.026,0.0314,0.0373,0.0459,0.0545,0.0551,0.0679,0.0751,0.093,0.0994,0.1062,0.0851,0.0621,0.031,-0.0112,-0.0337,-0.0406,-0.0398,-0.0464,-0.047,-0.0477,-0.0441,-0.0407,-0.0408,-0.0409,-0.0409,0,0,0.027,0.0345,0.0398,0.0557,0.0632,0.0759,0.0856,0.0958,0.1026,0.1117,0.1117,0.1034,0.0698,0.0389,0.005,-0.0183,-0.0269,-0.022,-0.0157,-0.0201,-0.0205,-0.047,-0.0417,0,0,0,0,0]}],[{"header":{"parameterUnit":"m.s-1","parameterCategory":2,"la1":30.2991,"la2":30.254,"lo1":-89.0895,"lo2":-89.0444,"dy":0.0017,"dx":0.0017,"nx":28,"ny":28,"refTime":"2025-09-02T03:00:00:Z","depth":"4","parameterNumber":2,"parameterNumberName":"U-component_of_CURRENTS"},"data":[0,0,0,0,0,0,0,0,0,0,0,0,0,0,0,0,0,0,0,0,0,0,0,0,0,0,0,0,0,0,0,0,0,0,0,0,0,0,0,0,0,0,0,0,0,0,0,0,0,0,0,0,0,0,0,0,0,0,0.0998,0.0998,0,0.1053,0.1053,0.1054,0.1089,0.109,0.109,0.109,0.1165,0.1166,0.1168,0,0,0,0,0,0,0,0,0,0,0,0,0,0.0893,0.0895,0.0998,0.0998,0.0999,0.1053,0.1053,0.1054,0.1089,0.109,0.109,0.1091,0.1164,0.1166,0.1168,0,0,0,0,0,0,0,0,0,0,0,0,0,0.0941,0.0895,0.0997,0.1024,0.1028,0.1052,0.1053,0.1054,0.1089,0.109,0.109,0.1091,0.1163,0.1166,0.1168,0.1173,0,0,0.1176,0.1177,0,0,0,0,0,0,0,0,0.0938,0.0944,0.102,0.1023,0.1026,0.1066,0.1044,0.1095,0.1089,0.1064,0.109,0.1091,0.1134,0.1139,0.1146,0.1176,0.1179,0.1176,0.1177,0.1179,0.1179,0,0,0,0,0,0,0,0.0935,0.0942,0.1018,0.1021,0.1025,0.1024,0.1031,0.1053,0.1095,0.1066,0.107,0.1078,0.1136,0.1143,0.1148,0.118,0.1176,0.1178,0.118,0.1181,0.1281,0.1282,0,0,0,0,0,0,0.0932,0.0939,0.1016,0.102,0.0984,0.1025,0.1034,0.1051,0.1094,0.1101,0.1077,0.1079,0.1139,0.1145,0.1151,0.1221,0.1179,0.1181,0.1182,0.128,0.1281,0.1282,0,0,0,0,0,0,0.093,0.0939,0.1014,0.0981,0.0991,0.1027,0.1046,0.1052,0.1087,0.1102,0.111,0.1109,0.1139,0.1147,0.1192,0.1221,0.1182,0.1184,0.1278,0.128,0.1282,0.1321,0,0,0,0,0,0,0.0927,0.0938,0.0953,0.0981,0.0993,0.1041,0.1046,0.1053,0.109,0.1094,0.1131,0.1137,0.114,0.1188,0.1195,0.1224,0.1186,0.1277,0.1279,0.1281,0.1318,0.1324,0.1329,0,0,0,0,0,0.0923,0.0937,0.0954,0.0964,0.1012,0.1041,0.1047,0.1073,0.1091,0.1106,0.1136,0.1137,0.1207,0.1192,0.1198,0.1229,0.1276,0.1278,0.1281,0.1316,0.1323,0.1329,0,0,0,0,0,0,0.0901,0.0943,0.0962,0.099,0.1021,0.1048,0.1068,0.1089,0.1124,0.1137,0.1154,0.1162,0.121,0.1215,0.1198,0.1264,0.1241,0.1245,0.1265,0.1272,0.1277,0.1283,0.1188,0,0,0,0,0,0.0904,0.0929,0.0966,0.0992,0.1012,0.1047,0.1066,0.1086,0.1118,0.1136,0.1163,0.1194,0.1221,0.1244,0.1263,0.1304,0.1313,0.1328,0.1333,0.1338,0.1347,0.1382,0.1392,0.1291,0.1291,0.1291,0,0,0.0903,0.0931,0.0945,0.099,0.102,0.1047,0.1061,0.1098,0.1126,0.1138,0.1191,0.1214,0.1235,0.1277,0.1299,0.129,0.1371,0.1341,0.1345,0.1352,0.1386,0.1396,0.1405,0.1293,0.1293,0.1292,0,0,0.0906,0.0944,0.0962,0.0991,0.1039,0.1061,0.1079,0.1124,0.1152,0.1201,0.1216,0.1259,0.1304,0.1325,0.134,0.1389,0.1395,0.1399,0.1437,0.1472,0.148,0.1488,0.1511,0.1521,0.1406,0.1406,0.1406,0,0.09,0.0935,0.0972,0.0998,0.1024,0.1072,0.1097,0.1132,0.1185,0.1214,0.1224,0.1307,0.1326,0.1379,0.1399,0.1402,0.142,0.141,0.1479,0.1486,0.1493,0.1516,0.1526,0.1408,0.1408,0.1407,0.1407,0,0.0913,0.0947,0.0965,0.1016,0.1047,0.1079,0.1129,0.1173,0.1218,0.1251,0.1323,0.1356,0.1409,0.1422,0.1431,0.1494,0.149,0.1477,0.1461,0.1506,0.1527,0.1536,0.1411,0.141,0.141,0.1409,0,0,0.0882,0.0956,0.0965,0.0991,0.106,0.1083,0.1144,0.1203,0.1251,0.1311,0.1372,0.1432,0.1466,0.1487,0.1508,0.1543,0.161,0.1542,0.1543,0.1563,0.1689,0.1587,0.1587,0.1613,0.1615,0.1617,0.1682,0,0.0882,0.0925,0.0966,0.1014,0.1041,0.1105,0.1154,0.1217,0.1281,0.1351,0.1411,0.1476,0.1487,0.1528,0.1567,0.1599,0.1638,0.1593,0.1644,0.1645,0.1548,0.1596,0.1623,0.1689,0.1692,0.1693,0.1694,0,0.0878,0.0909,0.0951,0.1017,0.1037,0.1075,0.1167,0.1218,0.1324,0.1378,0.1463,0.1516,0.16,0.1595,0.1685,0.1661,0.1687,0.1703,0.1705,0.1604,0.1561,0.1636,0.1712,0.171,0.1709,0.1708,0.1707,0,0.0831,0.0897,0.0929,0.0953,0.1036,0.1075,0.1129,0.123,0.1287,0.141,0.147,0.1566,0.1628,0.1683,0.174,0.1725,0.182,0.1796,0.1727,0.172,0.1774,0.1765,0.1858,0.1858,0.1858,0.1858,0.1857,0,0.0808,0.0834,0.0915,0.0932,0.0977,0.1051,0.1121,0.1192,0.1307,0.1373,0.1487,0.1552,0.1657,0.1727,0.1763,0.1777,0.1844,0.1745,0.1734,0.1789,0.1781,0.1781,0.1771,0.186,0.1859,0.1859,0.1859,0,0.0752,0.0806,0.0843,0.0929,0.0957,0.0994,0.1109,0.1163,0.1281,0.1374,0.1422,0.1564,0.1652,0.1737,0.1822,0.179,0.182,0.1806,0.1869,0.1858,0.1691,0.1683,0.1733,0.173,0.1727,0.1725,0.1724,0,0.0723,0.0739,0.0824,0.0851,0.0893,0.0963,0.1013,0.1137,0.1201,0.1364,0.1401,0.1534,0.1615,0.1666,0.1746,0.1806,0.179,0.1787,0.1732,0.1696,0.1681,0.1677,0.1672,0.172,0.1719,0.1718,0.1718,0,0.0664,0.0705,0.0739,0.0794,0.0847,0.0901,0.0987,0.1022,0.1163,0.1273,0.1369,0.1441,0.153,0.1608,0.1667,0.1702,0.1778,0.176,0.1765,0.1714,0.168,0.1667,0.1665,0.1709,0.171,0.1711,0.1712,0,0.0618,0.0631,0.0688,0.0735,0.0787,0.0829,0.0883,0.0968,0.1047,0.1228,0.1247,0.1394,0.1506,0.1554,0.1607,0.1637,0.1616,0.1564,0.1578,0.1589,0.1512,0.1446,0.1404,0,0,0,0,0,0.0566,0.0589,0.0626,0.0678,0.0726,0.0771,0.0861,0.0925,0.1048,0.1088,0.1174,0.1261,0.1355,0.1432,0.1439,0.1534,0.161,0.1533,0.1554,0.1661,0.1671,0.1594,0,0,0,0,0,0,0.0533,0.0566,0.0604,0.0622,0.065,0.0708,0.0764,0.0852,0.0891,0.1019,0.1088,0.1187,0.1306,0.135,0.1418,0.1439,0.1427,0.1624,0.1621,0.1655,0.1664,0.1672,0.1597,0,0,0,0,0]},{"header":{"parameterUnit":"m.s-1","parameterCategory":2,"la1":30.2991,"la2":30.254,"lo1":-89.0895,"lo2":-89.0444,"dy":0.0017,"dx":0.0017,"nx":28,"ny":28,"refTime":"2025-09-02T03:00:00:Z","depth":"4","parameterNumber":3,"parameterNumberName":"V-component_of_CURRENTS"},"data":[0,0,0,0,0,0,0,0,0,0,0,0,0,0,0,0,0,0,0,0,0,0,0,0,0,0,0,0,0,0,0,0,0,0,0,0,0,0,0,0,0,0,0,0,0,0,0,0,0,0,0,0,0,0,0,0,0,0,0.0261,0.0261,0,0.0232,0.0231,0.0231,0.0203,0.0202,0.0202,0.0202,0.0144,0.0143,0.0142,0,0,0,0,0,0,0,0,0,0,0,0,0,0.0266,0.0266,0.0261,0.0261,0.026,0.0232,0.0231,0.0231,0.0203,0.0202,0.0202,0.0201,0.0145,0.0143,0.0142,0,0,0,0,0,0,0,0,0,0,0,0,0,0.0253,0.0266,0.0261,0.0243,0.0241,0.0232,0.0231,0.0231,0.0203,0.0202,0.0202,0.0201,0.0145,0.0143,0.0142,0.0141,0,0,0.0136,0.0135,0,0,0,0,0,0,0,0,0.0254,0.0253,0.0246,0.0244,0.0242,0.0221,0.0212,0.0199,0.0203,0.0217,0.0202,0.0201,0.0168,0.0164,0.016,0.0138,0.0135,0.0136,0.0135,0.0134,0.0134,0,0,0,0,0,0,0,0.0255,0.0253,0.0249,0.0246,0.0243,0.0227,0.0225,0.021,0.0195,0.0216,0.0214,0.0211,0.0166,0.0162,0.0158,0.0135,0.0136,0.0134,0.0133,0.0133,0.0129,0.013,0,0,0,0,0,0,0.0261,0.0255,0.025,0.0248,0.0247,0.0228,0.0225,0.0228,0.0196,0.019,0.0212,0.021,0.0165,0.016,0.0156,0.018,0.0134,0.0132,0.0131,0.0128,0.0129,0.013,0,0,0,0,0,0,0.0261,0.0261,0.0251,0.0251,0.0248,0.0229,0.0231,0.0227,0.0224,0.0193,0.0187,0.0213,0.0164,0.0158,0.0155,0.0176,0.0132,0.013,0.0127,0.0128,0.013,0.0211,0,0,0,0,0,0,0.0262,0.0261,0.0269,0.0251,0.0249,0.0257,0.0232,0.0227,0.0224,0.0221,0.0192,0.0186,0.0163,0.0158,0.0154,0.0173,0.0128,0.0126,0.0128,0.0129,0.0207,0.0215,0.0222,0,0,0,0,0,0.0262,0.0277,0.027,0.0269,0.0259,0.0258,0.0256,0.0239,0.0224,0.0232,0.0214,0.0187,0.0167,0.0158,0.0152,0.0172,0.0125,0.0127,0.0129,0.0204,0.0213,0.0222,0,0,0,0,0,0,0.0286,0.0275,0.0267,0.0278,0.0273,0.0253,0.0259,0.0244,0.0236,0.0234,0.0199,0.0193,0.0199,0.0174,0.0165,0.0176,0.0141,0.0142,0.02,0.0208,0.0216,0.0222,0.0127,0,0,0,0,0,0.0295,0.0301,0.0288,0.0299,0.0298,0.0279,0.0276,0.0267,0.0255,0.025,0.0229,0.021,0.0204,0.0197,0.0185,0.019,0.0154,0.0198,0.0205,0.0212,0.0213,0.018,0.0184,0.0138,0.0138,0.0138,0,0,0.0307,0.0302,0.0306,0.0304,0.0297,0.0309,0.0276,0.0281,0.0295,0.0245,0.0256,0.0235,0.0211,0.0221,0.0221,0.0202,0.0208,0.0215,0.0221,0.0218,0.0183,0.0187,0.0191,0.0139,0.0139,0.0139,0,0,0.0338,0.0332,0.0348,0.0348,0.0345,0.0336,0.034,0.0326,0.0324,0.0334,0.0304,0.0297,0.0283,0.0271,0.0264,0.0303,0.025,0.0298,0.0339,0.0308,0.0311,0.0314,0.0281,0.028,0.03,0.0301,0.0301,0,0.0353,0.0372,0.0354,0.0372,0.0378,0.0352,0.0375,0.0374,0.0362,0.0363,0.035,0.0331,0.0311,0.0319,0.0335,0.0321,0.0289,0.0309,0.0317,0.0319,0.032,0.0286,0.0284,0.0305,0.0304,0.0304,0.0303,0,0.0395,0.0412,0.0423,0.0437,0.0443,0.0459,0.0454,0.046,0.0452,0.0443,0.0448,0.0421,0.0407,0.0403,0.0383,0.0385,0.0355,0.0331,0.0295,0.033,0.0291,0.0288,0.0311,0.0309,0.0308,0.0307,0,0,0.0417,0.0448,0.0451,0.047,0.0479,0.0488,0.0516,0.0528,0.0539,0.053,0.0542,0.0533,0.0503,0.0492,0.0461,0.0435,0.0422,0.0391,0.0387,0.0359,0.0346,0.0284,0.0273,0.0394,0.0394,0.0393,0.0318,0,0.0454,0.0504,0.0508,0.0556,0.0579,0.0572,0.0601,0.0607,0.06,0.0604,0.0579,0.0578,0.0542,0.0536,0.0508,0.0437,0.0414,0.0444,0.0315,0.0312,0.0253,0.0268,0.0393,0.0315,0.0314,0.0314,0.0313,0,0.0489,0.0519,0.0576,0.0616,0.0625,0.0654,0.068,0.0701,0.0699,0.0692,0.0679,0.0647,0.0619,0.0584,0.0487,0.0503,0.0437,0.0381,0.0377,0.0286,0.0242,0.027,0.0305,0.0306,0.0306,0.0307,0.0307,0,0.0508,0.0562,0.0611,0.0626,0.0669,0.0698,0.0722,0.0731,0.0748,0.0745,0.0743,0.07,0.0671,0.0593,0.0479,0.0481,0.0358,0.0345,0.0231,0.0225,0.0268,0.0266,0.0284,0.0284,0.0284,0.0285,0.0285,0,0.0537,0.0573,0.0629,0.0655,0.0713,0.0734,0.0785,0.0794,0.0811,0.0817,0.079,0.0769,0.0667,0.0584,0.0492,0.0339,0.0366,0.0236,0.0201,0.0305,0.0308,0.0265,0.0264,0.0282,0.0282,0.0283,0.0283,0,0.0543,0.0581,0.0637,0.07,0.0725,0.0766,0.0829,0.0853,0.0868,0.0873,0.0876,0.0812,0.0687,0.0578,0.0428,0.034,0.0216,0.016,0.0279,0.0251,0.0106,0.011,0.003,0.0027,0.0025,0.0023,0.0021,0,0.0547,0.0581,0.0663,0.0698,0.0732,0.0798,0.0838,0.0878,0.0893,0.0883,0.0876,0.0781,0.0713,0.0467,0.035,0.0166,0.0138,0.008,0.0098,0.0105,0.0079,0.0087,0.0094,0.0017,0.0017,0.0016,0.0016,0,0.0547,0.0582,0.0624,0.07,0.0755,0.0814,0.087,0.0887,0.091,0.0928,0.0849,0.0737,0.0588,0.0424,0.0275,0.0149,0.0122,0.0055,0.0059,0.0076,0.0089,0.0067,0.0077,0.0007,0.0008,0.0009,0.001,0,0.0535,0.0562,0.062,0.0679,0.0748,0.0795,0.0841,0.085,0.0872,0.0861,0.0824,0.0695,0.0625,0.0412,0.028,0.0141,0.0108,0.0073,0.0076,0.0083,0.0117,0.0143,0.0045,0,0,0,0,0,0.0513,0.0534,0.0591,0.0652,0.072,0.0758,0.0835,0.0873,0.0899,0.0835,0.0831,0.0693,0.0476,0.0398,0.0244,0.0233,0.0088,0.0047,0.0049,-0.0039,-0.0029,-0.0005,0,0,0,0,0,0,0.0493,0.054,0.0569,0.061,0.0644,0.0714,0.0761,0.0792,0.0764,0.0774,0.0666,0.063,0.043,0.0544,0.0226,0.0188,0.0164,-0.0039,-0.0043,-0.0045,-0.0036,-0.0028,0.0,0,0,0,0,0]}]]